Location: Peterborough
(44.3091°N, 78.3197°W)
Time: 18:39:07
(UTC-04:00)

Vanguard 2 Rocket - Pass Details

Date: 29 March 2023
Orbit: 554 x 3314 km, 32.9° (Epoch: 05 June)

Event Time Altitude Azimuth Distance (km) Brightness Sun altitude
Rises 00:00:49 0° 266° (W) 4,384 10.6 -39.4°
Reaches altitude 10° 00:03:37 10° 257° (WSW) 3,729 10.1 -39.6°
Enters shadow 00:06:43 22° 242° (WSW) 3,211 9.5 -39.8°
